Date String (YYYY-MM-DD hh:mm:ss) UTC,Instrument flags,Ambient pressure (hPa),Sample flow (lpm),Bypass flow (lpm),Sample temperature (°C),Ambient temperature (°C),ASC tube jacket temperature (°C),LED temperature (°C),Box temperature (°C),Sample RH (%),Span deviation,Mass concentration (μg/m³),Mass concentration (μg/m³),Mass concentration (μg/m³)
DateTimeUTC,F1_M11,P_M11,Q1_M11,Q2_M11,T1_M11,T2_M11,T3_M11,T4_M11,T5_M11,U1_M11,ZSPAN_M11,X0_M11,X2_M11,X1_M11
2023-05-11 19:00:00,,0825.4,5.00,0.00,26.7,25.2,00.0,35.0,28.4,29.8,0000.0,0004.36,0002.77,0001.91
2023-05-11 19:01:00,,0825.4,5.00,0.00,26.7,25.2,00.0,35.0,28.4,29.7,0000.0,0004.35,0002.74,0001.89
2023-05-11 19:02:00,,0825.3,5.00,0.00,26.7,25.2,00.0,35.0,28.4,29.8,0000.0,0004.30,0002.73,0001.89
2023-05-11 19:03:00,,0825.4,5.00,0.00,26.7,25.2,00.0,35.0,28.4,29.9,0000.0,0004.43,0002.80,0001.91
2023-05-11 19:04:00,,0825.4,5.00,0.00,26.7,25.2,00.0,35.1,28.4,30.0,0000.0,0004.50,0002.82,0001.92
2023-05-11 19:05:00,,0825.4,5.00,0.00,26.7,25.2,00.0,35.1,28.4,30.1,0000.0,0004.50,0002.82,0001.95
2023-05-11 19:06:00,,0825.3,5.00,0.00,26.7,25.2,00.0,35.1,28.4,30.2,0000.0,0004.72,0002.90,0001.99
2023-05-11 19:07:00,,0825.4,5.01,0.00,26.7,25.2,00.0,35.1,28.4,30.2,0000.0,0004.75,0002.92,0002.05
2023-05-11 19:08:00,,0825.3,5.01,0.00,26.7,25.2,00.0,35.1,28.4,30.3,0000.0,0004.82,0002.95,0002.08
2023-05-11 19:09:00,,0825.3,5.00,0.00,26.7,25.2,00.0,35.1,28.4,30.4,0000.0,0004.86,0002.98,0002.12
2023-05-11 19:10:00,,0825.3,5.00,0.00,26.7,25.2,00.0,35.1,28.4,30.4,0000.0,0005.11,0002.94,0002.15
2023-05-11 19:11:00,,0825.3,4.99,0.00,26.7,25.2,00.0,35.1,28.5,30.3,0000.0,0005.42,0002.91,0002.16
2023-05-11 19:12:00,,0825.3,5.00,0.00,26.7,25.1,00.0,35.1,28.5,30.4,0000.0,0005.49,0002.92,0002.17
2023-05-11 19:13:00,,0825.3,5.01,0.00,26.7,25.1,00.0,35.1,28.5,30.4,0000.0,0005.55,0002.96,0002.20
2023-05-11 19:14:00,,0825.3,5.01,0.00,26.7,25.1,00.0,35.1,28.4,30.6,0000.0,0005.58,0002.98,0002.23
2023-05-11 19:15:00,,0825.3,5.00,0.00,26.7,25.1,00.0,35.1,28.4,30.7,0000.0,0005.68,0003.04,0002.27
2023-05-11 19:16:00,,0825.3,5.00,0.00,26.7,25.0,00.0,35.1,28.4,30.4,0000.0,0005.92,0003.12,0002.28
2023-05-11 19:17:00,,0825.3,5.00,0.00,26.7,25.0,00.0,35.1,28.4,30.3,0000.0,0005.85,0003.11,0002.27
2023-05-11 19:18:00,,0825.3,4.99,0.00,26.7,25.0,00.0,35.1,28.4,30.1,0000.0,0005.70,0003.07,0002.22
2023-05-11 19:19:00,,0825.3,4.99,0.00,26.7,25.0,00.0,35.1,28.4,29.9,0000.0,0005.84,0003.06,0002.19
2023-05-11 19:20:00,,0825.3,5.01,0.00,26.7,25.0,00.0,35.1,28.4,29.9,0000.0,0006.06,0003.05,0002.13
2023-05-11 19:21:00,,0825.2,5.01,0.00,26.7,25.0,00.0,35.1,28.4,30.0,0000.0,0005.72,0003.02,0002.08
2023-05-11 19:22:00,,0825.2,5.00,0.00,26.7,25.0,00.0,35.1,28.4,30.0,0000.0,0005.32,0003.01,0002.03
2023-05-11 19:23:00,,0825.3,5.00,0.00,26.7,25.0,00.0,35.1,28.4,30.0,0000.0,0005.42,0003.05,0002.00
2023-05-11 19:24:00,,0825.2,5.00,0.00,26.6,25.0,00.0,35.0,28.4,30.0,0000.0,0005.52,0003.07,0001.95
2023-05-11 19:25:00,,0825.2,4.99,0.00,26.6,25.0,00.0,35.0,28.4,29.9,0000.0,0005.29,0002.95,0001.88
2023-05-11 19:26:00,,0825.2,4.99,0.00,26.6,24.9,00.0,35.0,28.4,29.9,0000.0,0005.05,0002.80,0001.80
2023-05-11 19:27:00,,0825.2,5.00,0.00,26.6,24.9,00.0,35.0,28.4,29.7,0000.0,0004.88,0002.71,0001.73
2023-05-11 19:28:00,,0825.2,5.01,0.00,26.6,24.9,00.0,35.0,28.3,29.6,0000.0,0004.77,0002.62,0001.67
2023-05-11 19:29:00,,0825.2,5.01,0.00,26.6,24.9,00.0,35.0,28.3,29.5,0000.0,0004.66,0002.57,0001.64
2023-05-11 19:30:00,,0825.2,5.00,0.00,26.6,24.9,00.0,35.0,28.3,29.7,0000.0,0004.41,0002.48,0001.59
2023-05-11 19:31:00,,0825.1,4.99,0.00,26.6,24.9,00.0,35.0,28.3,29.7,0000.0,0003.90,0002.36,0001.56
2023-05-11 19:32:00,,0825.1,4.99,0.00,26.6,24.8,00.0,35.0,28.3,29.6,0000.0,0003.86,0002.30,0001.53
2023-05-11 19:33:00,,0825.1,4.99,0.00,26.6,24.8,00.0,35.0,28.3,29.5,0000.0,0003.66,0002.21,0001.49
2023-05-11 19:34:00,,0825.1,5.00,0.00,26.6,24.8,00.0,35.0,28.3,29.8,0000.0,0003.37,0002.08,0001.46
2023-05-11 19:35:00,,0825.1,5.00,0.00,26.6,24.8,00.0,35.0,28.3,29.8,0000.0,0003.14,0001.95,0001.42
2023-05-11 19:36:00,,0825.1,5.01,0.00,26.5,24.8,00.0,35.0,28.3,29.6,0000.0,0003.10,0001.93,0001.39
2023-05-11 19:37:00,,0825.1,5.01,0.00,26.5,24.8,00.0,35.0,28.2,29.8,0000.0,0003.29,0002.00,0001.39
2023-05-11 19:38:00,,0825.1,5.00,0.00,26.5,24.8,00.0,35.0,28.2,30.0,0000.0,0003.15,0001.94,0001.38
2023-05-11 19:39:00,,0825.0,5.01,0.00,26.5,24.8,00.0,35.0,28.2,30.2,0000.0,0003.13,0001.92,0001.38
2023-05-11 19:40:00,,0825.0,5.00,0.00,26.5,24.7,00.0,35.0,28.2,30.2,0000.0,0003.19,0001.94,0001.37
2023-05-11 19:41:00,,0825.0,5.00,0.00,26.5,24.7,00.0,34.9,28.2,30.0,0000.0,0003.27,0001.95,0001.36
2023-05-11 19:42:00,,0824.9,5.00,0.00,26.5,24.7,00.0,34.9,28.2,29.9,0000.0,0003.60,0002.03,0001.36
2023-05-11 19:43:00,,0824.9,5.00,0.00,26.5,24.7,00.0,34.9,28.2,29.7,0000.0,0003.65,0002.02,0001.36
2023-05-11 19:44:00,,0824.9,5.00,0.00,26.5,24.7,00.0,34.9,28.2,29.7,0000.0,0003.86,0002.09,0001.37
2023-05-11 19:45:00,,0824.9,5.00,0.00,26.5,24.7,00.0,34.9,28.1,29.8,0000.0,0003.94,0002.12,0001.37
2023-05-11 19:46:00,,0825.0,4.99,0.00,26.4,24.6,00.0,34.9,28.1,29.8,0000.0,0004.18,0002.23,0001.38
2023-05-11 19:47:00,,0824.9,5.00,0.00,26.4,24.6,00.0,34.9,28.1,29.8,0000.0,0004.35,0002.26,0001.38
2023-05-11 19:48:00,,0825.0,5.01,0.00,26.4,24.6,00.0,34.9,28.1,29.8,0000.0,0004.29,0002.22,0001.38
2023-05-11 19:49:00,,0825.0,5.00,0.00,26.4,24.6,00.0,34.9,28.1,29.7,0000.0,0004.48,0002.29,0001.40
2023-05-11 19:50:00,,0825.0,4.99,0.00,26.4,24.6,00.0,34.9,28.1,29.8,0000.0,0004.67,0002.33,0001.41
2023-05-11 19:51:00,,0825.0,5.00,0.00,26.4,24.6,00.0,34.9,28.1,29.8,0000.0,0004.67,0002.33,0001.40
2023-05-11 19:52:00,,0825.0,5.00,0.00,26.4,24.6,00.0,34.9,28.1,29.8,0000.0,0004.78,0002.38,0001.42
2023-05-11 19:53:00,,0825.0,5.00,0.00,26.4,24.6,00.0,34.8,28.1,30.0,0000.0,0004.55,0002.37,0001.43
2023-05-11 19:54:00,,0825.0,5.00,0.00,26.4,24.6,00.0,34.8,28.1,30.1,0000.0,0004.51,0002.39,0001.44
2023-05-11 19:55:00,,0825.1,5.01,0.00,26.4,24.6,00.0,34.8,28.1,29.8,0000.0,0004.43,0002.40,0001.45
2023-05-11 19:56:00,,0825.1,5.00,0.00,26.4,24.7,00.0,34.8,28.1,29.8,0000.0,0004.64,0002.48,0001.47
2023-05-11 19:57:00,,0825.1,5.00,0.00,26.4,24.7,00.0,34.8,28.1,29.7,0000.0,0004.81,0002.51,0001.47
2023-05-11 19:58:00,,0825.2,5.00,0.00,26.4,24.8,00.0,34.8,28.1,29.5,0000.0,0004.88,0002.57,0001.48
2023-05-11 19:59:00,,0825.2,5.00,0.00,26.4,24.9,00.0,34.8,28.1,29.4,0000.0,0004.92,0002.62,0001.49
